This is the latest recevied weather packets stored in our database for station/object N3TUQ-2. If no packets are shown the sender has not sent any weather packets the latest 10 day(s).
| Time | Temp. | Humidity | Pressure | Rain* | Wind** | Luminosity | Snow |
|---|---|---|---|---|---|---|---|
| 1788567413 | 21.11° C | 86% | 1012.9 hPa | 0 mm | - | - | - |
| 1788566633 | 21.11° C | 85% | 1012.8 hPa | 0 mm | - | - | - |
| 1788565853 | 21.11° C | 84% | 1012.6 hPa | 0 mm | - | - | - |
| 1788565073 | 21.11° C | 85% | 1012.4 hPa | 0 mm | - | - | - |
| 1788564293 | 21.11° C | 85% | 1012.4 hPa | 0 mm | - | - | - |
| 1788563513 | 21.67° C | 86% | 1012.5 hPa | 0 mm | - | - | - |
| 1788562733 | 22.22° C | 83% | 1012.5 hPa | 0 mm | - | - | - |
| 1788561953 | 22.78° C | 83% | 1012.4 hPa | 0 mm | - | - | - |
| 1788561173 | 22.78° C | 80% | 1012.5 hPa | 0 mm | - | - | - |
| 1788560393 | 23.33° C | 80% | 1012.4 hPa | 0 mm | - | - | - |
| 1788559613 | 23.33° C | 77% | 1012.4 hPa | 0 mm | - | - | - |
| 1788558833 | 23.89° C | 77% | 1012.3 hPa | 0 mm | - | - | - |
| 1788558053 | 23.89° C | 77% | 1012 hPa | 0 mm | - | - | - |
| 1788557273 | 24.44° C | 74% | 1011.9 hPa | 0 mm | - | - | - |
| 1788556493 | 25° C | 74% | 1011.9 hPa | 0 mm | - | - | - |
| 1788555713 | 23.89° C | 76% | 1012.2 hPa | 0 mm | - | - | - |
| 1788554933 | 23.89° C | 75% | 1012.5 hPa | 0 mm | - | - | - |
| 1788554153 | 23.89° C | 78% | 1012.6 hPa | 0 mm | - | - | - |
| 1788553373 | 23.89° C | 80% | 1012.5 hPa | 0 mm | - | - | - |
| 1788552593 | 23.89° C | 78% | 1012.6 hPa | 0 mm | - | - | - |
| 1788551813 | 24.44° C | 79% | 1012.7 hPa | 0 mm | - | - | - |
| 1788551033 | 23.89° C | 79% | 1012.9 hPa | 0 mm | - | - | - |
| 1788550253 | 23.89° C | 77% | 1013 hPa | 0 mm | - | - | - |
| 1788549472 | 24.44° C | 79% | 1013.1 hPa | 0 mm | - | - | - |
| 1788548692 | 23.89° C | 82% | 1013.2 hPa | 0 mm | - | - | - |
* Rain latest hour (hover to see other rain measurements)
** Current wind speed in m/s (hover to see current wind gust speed)